Regional Weather Roundup
Issued by NWS

Home | Current Version | Previous Version | Graphics & Text | Print | Product List | Glossary Off
Versions: 1 2 3 4 5 6 7 8 9 10 11 12 13 14 15 16 17 18 19 20 21 22 23 24 25 26 27 28 29 30 31 32 33 34 35 36 37 38 39 40 41 42 43 44 45 46 47 48 49 50

000
ASUS43 KDTX 192210
RWRMI
MICHIGAN HOURLY REGIONAL WEATHER ROUNDUP
NATIONAL WEATHER SERVICE DETROIT/PONTIAC MI
600 PM EDT SUN APR 19 2015

NOTE: "FAIR" INDICATES FEW OR NO CLOUDS BELOW 12,000 FEET WITH NO
SIGNIFICANT WEATHER AND/OR OBSTRUCTION TO VISIBILITY.

MIZ047>049-052>055-059>063-066>070-074>076-081>083-192300-
SOUTHEAST LOWER MICHIGAN

CITY           SKY/WX    TMP DP  RH WIND       PRES   REMARKS
ADRIAN         LGT RAIN  51  43  74 E18       29.67F
ALMA           CLOUDY    57  40  53 NE12      29.69F
ANN ARBOR      CLOUDY    57  39  51 E13       29.69F
BAD AXE        CLOUDY    54  35  48 E9G24     29.79F
CARO           CLOUDY    58  43  57 E12G18    29.74F
DETROIT CITY   CLOUDY    56  38  50 E13G21    29.73F
DETROIT        CLOUDY    60  36  40 NE10G23   29.71F
FLINT          CLOUDY    62  41  46 E18       29.71F
GROSSE ILE     CLOUDY    55  36  47 E15G21    29.68F
HILLSDALE      LGT RAIN  52  48  86 E15G23    29.63F
HOWELL         CLOUDY    57  36  45 E18       29.70F

CITY           SKY/WX    TMP DP  RH WIND       PRES   REMARKS
JACKSON        LGT RAIN  53  45  74 E13G23    29.66F
LAMBERTVILLE   LGT RAIN  46  41  81 E9G16     29.68F
LANSING        CLOUDY    61  41  47 SE17      29.68F
LAPEER         FAIR      58  41  53 SE9       29.74F
MASON          LGT RAIN  56  40  54 E17       29.68F
MONROE         RAIN      52  39  62 E16G26    29.67F
MT. CLEMENS    CLOUDY    56  43  61 NE12      29.71F
PONTIAC        LGT RAIN  57  38  48 E15G23    29.71F
PORT HOPE        N/A     46  37  71 E12       29.80F
PORT HURON     CLOUDY    55  39  54 E12G20    29.76F
TRI CITIES     CLOUDY    52  41  66 NE18      29.73F
TROY           CLOUDY    59  38  46 E14       29.74F
SAGINAW HB     CLOUDY    63  37  39 E14       29.71F
$$
MIZ043>046-050>051-056>058-064>065-071>073-077>080-192300-
SOUTHWEST LOWER MICHIGAN

CITY           SKY/WX    TMP DP  RH WIND       PRES   REMARKS
BATTLE CREEK   LGT RAIN  55  48  77 E9        29.65F
BENTON HARBOR  LGT RAIN  55  52  89 E13       29.55F FOG
BIG RAPIDS     CLOUDY    58  33  38 E20G26    29.68F
COLDWATER      LGT RAIN  51  47  87 E13       29.61F
FREMONT        FAIR      62  29  28 E15G25    29.63F
HOLLAND        LGT RAIN  60  48  64 E15G23    29.61F
GRAND RAPIDS   CLOUDY    60  42  51 E18G26    29.64F
IONIA          LGT RAIN  58  45  60 E9        29.66F
KALAMAZOO      LGT RAIN  54  49  83 E13G20    29.61F
LUDINGTON      CLOUDY    66  28  23 E18       29.61F
MARSHALL       LGT RAIN  52  46  80 E10G18    29.64F
MOUNT PLEASANT CLOUDY    58  34  40 NE13      29.71F
MUSKEGON       CLOUDY    66  33  29 E15G28    29.60F
SOUTH HAVEN    LGT RAIN  58  52  81 E9        29.58F
$$
MIZ016>042-192300-
NORTHERN LOWER MICHIGAN

CITY           SKY/WX    TMP DP  RH WIND       PRES   REMARKS
ALPENA         PTSUNNY   49  31  49 E14       29.85F
BEAVER ISLAND  PTSUNNY   46  32  57 E21G32    29.73F
BELLAIRE       PTSUNNY   64  22  20 E9G22     29.71F
CADILLAC       PTSUNNY   59  32  36 E18       29.69F
CHARLEVOIX     PTSUNNY   60  24  25 E20G25    29.73F
FRANKFORT      MOSUNNY   73  -1   5 SE10G17   29.62F
GAYLORD        PTSUNNY   56  27  32 E13G23    29.75F
GRAYLING       PTSUNNY   58  28  31 E16G24    29.76F
HARBOR SPRINGS PTSUNNY   56  27  32 E17G25    29.75F
HOUGHTON LAKE  PTSUNNY   56  29  35 E15G26    29.75F
MANISTEE       PTSUNNY   68  27  21 E17G24    29.63F
OSCODA         PTSUNNY   47  32  57 NE15G21   29.82F
PELLSTON       PTSUNNY   51  32  48 E17G29    29.79F
ROGERS CITY    PTSUNNY   44  33  65 E17       29.86F
TRAVERSE CITY  CLOUDY    65  27  23 SE17G28   29.67F
$$
MIZ007>008-015-192300-
EASTERN UPPER MICHIGAN

CITY           SKY/WX    TMP DP  RH WIND       PRES   REMARKS
KINROSS        MOSUNNY   46  28  49 E18       29.85F
MACKINAC ISLAN PTSUNNY   39  31  71 E16G32    29.82F WCI  31
NEWBERRY       CLOUDY    46  28  48 E18       29.78F
S. S. MARIE    MOSUNNY   48  25  40 SE17G26   29.84F
MUNISING         N/A     54  28  36 S14G25    29.70F
$$
MIZ004>006-011>014-085-192300-
CENTRAL UPPER MICHIGAN

CITY           SKY/WX    TMP DP  RH WIND       PRES   REMARKS
MANISTIQUE     CLOUDY    48  32  54 E20G28    29.73F
ESCANABA       PTSUNNY   46  30  53 NE10      29.69F
MENOMINEE      PTSUNNY   52  34  50 E9        29.65F
SAWYER-GWINN   CLOUDY    52  28  40 S13       29.70F
$$
MIZ001>003-009>011-084-192300-
WESTERN UPPER MICHIGAN

CITY           SKY/WX    TMP DP  RH WIND       PRES   REMARKS
IRON MOUNTAIN  CLOUDY    56  30  37 E12G17    29.66F
HOUGHTON       CLOUDY    46  32  58 E13       29.62F
COPPER HARBOR    N/A     45  31  58 S14G24    29.65F
IRONWOOD       CLOUDY    52  46  82 S5        29.55F
$$

ABBREVIATIONS USED IN REMARKS
   TC - TEMPERATURE IN CELSIUS
  WCI - WIND CHILL INDEX
   HX - HEAT INDEX
  VSB - VISIBILITY




USA.gov is the U.S. government's official web portal to all federal, state and local government web resources and services.